NORTHEAST SUFFOLK  -  Special Weather Statement Special Weather Statement        NORTHERN NASSAU  -  Special Weather Statement Special Weather Statement        NORTHWEST SUFFOLK  -  Special Weather Statement Special Weather Statement        SOUTHEAST SUFFOLK  -  Special Weather Statement Special Weather Statement        SOUTHERN NASSAU  -  Special Weather Statement Special Weather Statement        SOUTHWEST SUFFOLK  -  Special Weather Statement Special Weather Statement      

Active alerts

Northern Nassau
  Details for Northern Nassau Special Weather Statement
Southern Nassau
  Details for Southern Nassau Special Weather Statement
Northwest Suffolk
  Details for Northwest Suffolk Special Weather Statement
Southwest Suffolk
  Details for Southwest Suffolk Special Weather Statement
Northeast Suffolk
  Details for Northeast Suffolk Special Weather Statement
Southeast Suffolk
  Details for Southeast Suffolk Special Weather Statement


WXM80 ListenWXM80 Stop

You find our weather info also at:

UK Metoffice

WeatherCloud

Weather Underground

Northeastern Weather Network

AWEKAS

Citizen Weather Observer Program (CWOP)

HAMweather, WeatherForYou, PWS Weather


Weather Underground History page Text

Daily Summary for November 8, 2017 Units:  Metric    English   Both
« Previous Day
Next Day »
Daily Weekly Monthly Yearly Custom
  High: Low: Average:
Temperature: 9 °C 4.7 °C 6.8 °C
Dew Point: 5.4 °C 3 °C 4.4 °C
Humidity: 96 % 74 % 85 %
Wind Speed: 24.3 km/h 0 km/h 6.8 km/h
Wind Gust: 35.2 km/h - -
Wind:- - ENE
Pressure: 1024.6 hPa 1015.8 hPa -
Precipitation: 6.86 mm    
Historical Graphs
 
 
Tabular Data for November 8, 2017
Time Temperature Dew Point Pressure Wind Wind Speed Wind Gust Humidity Rainfall Rate (Hourly)
00:04 5.8 °C 5.2 °C 1020.9 hPa NE 9.7 km/h 16.7 km/h 96 % 0.51 mm
00:09 5.8 °C 5.2 °C 1020.9 hPa NNE 9.7 km/h 18.5 km/h 96 % 0.51 mm
00:14 5.8 °C 5.2 °C 1020.5 hPa East 9 km/h 24.1 km/h 96 % 0.51 mm
00:19 5.7 °C 5.1 °C 1020.5 hPa NE 7.2 km/h 18.5 km/h 96 % 0.25 mm
00:24 5.7 °C 5.1 °C 1020.5 hPa NNE 14.6 km/h 29.6 km/h 96 % 0.25 mm
00:29 5.7 °C 5.1 °C 1020.5 hPa NNE 7.6 km/h 13 km/h 96 % 0.25 mm
00:34 5.7 °C 5.1 °C 1020.9 hPa NE 11.4 km/h 19.3 km/h 96 % 0.25 mm
00:39 5.7 °C 5.1 °C 1020.5 hPa NNE 10 km/h 18.5 km/h 96 % 0.25 mm
00:44 5.6 °C 5 °C 1020.5 hPa ENE 8.4 km/h 11.3 km/h 96 % 0.51 mm
00:49 5.6 °C 4.9 °C 1020.5 hPa NNE 11.1 km/h 20.4 km/h 96 % 0.51 mm
00:54 5.6 °C 4.9 °C 1020.5 hPa North 11.9 km/h 22.2 km/h 96 % 0.51 mm
00:59 5.6 °C 4.9 °C 1020.5 hPa NNE 10.3 km/h 18.5 km/h 96 % 0.51 mm
01:04 5.5 °C 4.9 °C 1020.5 hPa NE 13 km/h 19.3 km/h 96 % 0.25 mm
01:09 5.5 °C 4.9 °C 1020.5 hPa North 8.2 km/h 13 km/h 96 % 0.25 mm
01:14 5.5 °C 4.9 °C 1020.9 hPa North 7.7 km/h 11.1 km/h 96 % 0.25 mm
01:19 5.6 °C 4.9 °C 1020.5 hPa East 9.5 km/h 14.8 km/h 96 % 0.25 mm
01:24 5.6 °C 4.9 °C 1020.5 hPa North 9.5 km/h 14.8 km/h 96 % 0.51 mm
01:29 5.5 °C 4.9 °C 1020.9 hPa NNE 11.1 km/h 18.5 km/h 96 % 0.51 mm
01:34 5.5 °C 4.9 °C 1020.9 hPa NNE 11.7 km/h 19.3 km/h 96 % 0.51 mm
01:39 5.4 °C 4.8 °C 1021.2 hPa North 14.6 km/h 24.1 km/h 96 % 0.51 mm
01:44 5.4 °C 4.8 °C 1020.9 hPa NNE 8.4 km/h 18.5 km/h 96 % 0.25 mm
01:49 5.5 °C 4.9 °C 1020.9 hPa NNE 8.9 km/h 18.5 km/h 96 % 0.25 mm
01:54 5.4 °C 4.8 °C 1020.9 hPa NNE 7.2 km/h 11.3 km/h 96 % 0.25 mm
01:59 5.3 °C 4.7 °C 1020.9 hPa NE 9.3 km/h 17.7 km/h 96 % 0.25 mm
02:04 5.4 °C 4.8 °C 1020.9 hPa NNE 12.6 km/h 24.1 km/h 96 % 0.25 mm
02:09 5.3 °C 4.7 °C 1020.9 hPa North 16.6 km/h 30.6 km/h 96 % 0.51 mm
02:14 5.3 °C 4.7 °C 1020.9 hPa NNE 14.2 km/h 29.6 km/h 96 % 0.51 mm
02:24 5.2 °C 4.6 °C 1020.9 hPa NE 16.3 km/h 25.9 km/h 96 % 0.25 mm
02:29 5.2 °C 4.6 °C 1020.9 hPa NNE 9.8 km/h 18.5 km/h 96 % 0.25 mm
02:34 5.2 °C 4.6 °C 1020.9 hPa NE 11.6 km/h 25.9 km/h 96 % 0.25 mm
02:39 5.1 °C 4.4 °C 1020.9 hPa NE 18.3 km/h 24.1 km/h 95 % 0.25 mm
02:45 5 °C 4.3 °C 1020.5 hPa NE 17.1 km/h 31.5 km/h 95 % 0.25 mm
02:50 4.9 °C 4.2 °C 1020.5 hPa North 24.3 km/h 35.2 km/h 95 % 0.51 mm
02:55 4.9 °C 4.2 °C 1020.9 hPa ENE 17.7 km/h 25.9 km/h 95 % 0.51 mm
03:00 4.8 °C 4.1 °C 1020.9 hPa North 17.7 km/h 31.5 km/h 95 % 0.51 mm
03:05 4.8 °C 3.9 °C 1020.9 hPa NNE 15.8 km/h 32.2 km/h 94 % 0.25 mm
03:10 4.8 °C 3.9 °C 1020.5 hPa NNE 13.2 km/h 20.4 km/h 94 % 0.25 mm
03:15 4.8 °C 4.1 °C 1020.5 hPa North 14.8 km/h 24.1 km/h 95 % 0.25 mm
03:20 4.8 °C 4.1 °C 1020.5 hPa NE 19.6 km/h 35.2 km/h 95 % 0.25 mm
03:25 4.8 °C 3.9 °C 1020.9 hPa NE 14.8 km/h 24.1 km/h 94 % 0.25 mm
03:30 4.8 °C 3.9 °C 1020.9 hPa NNE 13.4 km/h 20.9 km/h 94 % 0.25 mm
03:35 4.8 °C 3.9 °C 1020.9 hPa NNW 12.6 km/h 25.9 km/h 94 % 0.51 mm
03:40 4.8 °C 3.9 °C 1020.9 hPa NE 8.5 km/h 25.9 km/h 94 % 0.51 mm
03:45 4.8 °C 3.8 °C 1021.2 hPa NNE 11.7 km/h 18.5 km/h 93 % 0.51 mm
03:50 4.9 °C 3.8 °C 1021.2 hPa NE 10.1 km/h 18.5 km/h 93 % 0.25 mm
03:55 4.9 °C 3.8 °C 1021.2 hPa NNE 10.8 km/h 20.4 km/h 93 % 0.25 mm
04:00 4.9 °C 3.9 °C 1021.6 hPa NNE 10.6 km/h 16.7 km/h 93 % 0.25 mm
04:05 5 °C 4.1 °C 1021.2 hPa NNE 10.1 km/h 18.5 km/h 94 % 0.25 mm
04:10 5.1 °C 4 °C 1021.2 hPa ENE 12.7 km/h 22.5 km/h 93 % 0.25 mm
04:15 5.1 °C 4 °C 1021.2 hPa NE 17.4 km/h 31.5 km/h 93 % 0.25 mm
04:20 5.2 °C 4.1 °C 1021.2 hPa NNE 15.3 km/h 29.6 km/h 93 % 0.25 mm
04:25 5.2 °C 4.2 °C 1021.2 hPa North 12.7 km/h 27.8 km/h 93 % 0.51 mm
04:30 5.3 °C 4.1 °C 1021.6 hPa NE 18.2 km/h 25.9 km/h 92 % 0.51 mm
04:35 5.3 °C 4.1 °C 1021.6 hPa ENE 13 km/h 27.8 km/h 92 % 0.25 mm
04:40 5.4 °C 4.2 °C 1021.6 hPa North 9.3 km/h 17.7 km/h 92 % 0.25 mm
04:45 5.4 °C 4.2 °C 1021.6 hPa North 13.7 km/h 18.5 km/h 92 % 0.25 mm
04:50 5.4 °C 4.2 °C 1021.9 hPa NNE 15.8 km/h 24.1 km/h 92 % 0.25 mm
04:56 5.5 °C 4.1 °C 1021.6 hPa NNE 11.3 km/h 24.1 km/h 91 % 0 mm
05:01 5.5 °C 4.2 °C 1021.6 hPa NNE 7.9 km/h 13 km/h 91 % 0.25 mm
05:06 5.5 °C 4.2 °C 1021.6 hPa NNE 14.2 km/h 20.4 km/h 91 % 0.25 mm
05:11 5.5 °C 4.2 °C 1021.6 hPa NNE 14.2 km/h 20.4 km/h 91 % 0.25 mm
05:16 5.6 °C 4.2 °C 1021.6 hPa ENE 6.4 km/h 16.7 km/h 91 % 0.51 mm
05:21 5.6 °C 4.2 °C 1021.6 hPa ENE 7.4 km/h 11.1 km/h 91 % 0.51 mm
05:26 5.6 °C 4.3 °C 1021.6 hPa NNE 7.7 km/h 19.3 km/h 91 % 0.25 mm
05:31 5.6 °C 4.3 °C 1021.9 hPa NE 5.6 km/h 18.5 km/h 91 % 0.25 mm
05:36 5.6 °C 4.3 °C 1021.9 hPa NE 8.9 km/h 18.5 km/h 91 % 0.25 mm
05:41 5.6 °C 4.3 °C 1021.9 hPa NE 7.2 km/h 16.7 km/h 91 % 0.25 mm
05:46 5.6 °C 4.3 °C 1021.9 hPa NNE 14.3 km/h 25.9 km/h 91 % 0.25 mm
05:51 5.6 °C 4.1 °C 1021.9 hPa North 14 km/h 22.2 km/h 90 % 0.25 mm
05:56 5.6 °C 4.3 °C 1021.9 hPa NNE 9.2 km/h 20.9 km/h 91 % 0.25 mm
06:01 5.6 °C 4.3 °C 1021.9 hPa NNE 10.9 km/h 18.5 km/h 91 % 0.25 mm
06:11 5.6 °C 4.3 °C 1022.2 hPa ENE 12.4 km/h 20.4 km/h 91 % 0.51 mm
06:16 5.6 °C 4.1 °C 1022.2 hPa NNE 12.7 km/h 24.1 km/h 90 % 0.25 mm
06:21 5.6 °C 4.1 °C 1022.6 hPa ENE 10.9 km/h 18.5 km/h 90 % 0.25 mm
06:26 5.6 °C 4.1 °C 1022.6 hPa NNE 14.3 km/h 25.9 km/h 90 % 0.25 mm
06:31 5.6 °C 4.1 °C 1022.6 hPa NNE 14.8 km/h 22.2 km/h 90 % 0.25 mm
06:36 5.6 °C 3.9 °C 1022.9 hPa NNE 11.7 km/h 17.7 km/h 89 % 0.25 mm
06:41 5.6 °C 4.1 °C 1022.9 hPa North 4.8 km/h 14.8 km/h 90 % 0.25 mm
06:46 5.6 °C 4.1 °C 1022.9 hPa ENE 7.6 km/h 18.5 km/h 90 % 0.25 mm
06:51 5.6 °C 4.1 °C 1022.9 hPa North 7.9 km/h 13 km/h 90 % 0.25 mm
06:56 5.5 °C 4 °C 1023.2 hPa North 9.5 km/h 11.3 km/h 90 % 0.51 mm
07:01 5.5 °C 3.8 °C 1023.2 hPa East 9.8 km/h 13 km/h 89 % 0.51 mm
07:06 5.5 °C 3.8 °C 1023.2 hPa NE 7.2 km/h 16.7 km/h 89 % 0.25 mm
07:11 5.5 °C 4 °C 1023.6 hPa North 9.3 km/h 16.1 km/h 90 % 0.25 mm
07:16 5.5 °C 3.8 °C 1023.6 hPa NNE 8.2 km/h 11.1 km/h 89 % 0.25 mm
07:21 5.6 °C 4.1 °C 1023.6 hPa NNE 4.2 km/h 14.8 km/h 90 % 0.25 mm
07:26 5.6 °C 4.1 °C 1023.9 hPa NNE 10.8 km/h 18.5 km/h 90 % 0.25 mm
07:32 5.6 °C 4.1 °C 1023.9 hPa ENE 7.6 km/h 22.2 km/h 90 % 0.25 mm
07:37 5.7 °C 4.2 °C 1023.9 hPa NE 7.4 km/h 11.3 km/h 90 % 0.25 mm
07:42 5.7 °C 4.2 °C 1024.3 hPa ENE 9.3 km/h 16.7 km/h 90 % 0.25 mm
07:47 5.7 °C 4 °C 1024.3 hPa NNE 9.8 km/h 18.5 km/h 89 % 0.51 mm
07:52 5.7 °C 4 °C 1024.3 hPa NNE 7.4 km/h 18.5 km/h 89 % 0.51 mm
07:57 5.7 °C 4 °C 1023.9 hPa NNE 9.2 km/h 14.8 km/h 89 % 0.25 mm
08:02 5.7 °C 4 °C 1023.9 hPa NNE 7.9 km/h 11.3 km/h 89 % 0.25 mm
08:07 5.7 °C 4.2 °C 1023.9 hPa ENE 14 km/h 20.4 km/h 90 % 0.25 mm
08:12 5.7 °C 4 °C 1023.9 hPa NE 8.9 km/h 16.7 km/h 89 % 0.25 mm
08:17 5.7 °C 4.1 °C 1023.9 hPa NNE 7.2 km/h 14.5 km/h 89 % 0.25 mm
08:22 5.8 °C 4.1 °C 1023.9 hPa ENE 8 km/h 14.8 km/h 89 % 0.25 mm
08:27 5.8 °C 4.1 °C 1023.9 hPa East 5.5 km/h 14.5 km/h 89 % 0.25 mm
08:32 5.8 °C 4.1 °C 1023.9 hPa NE 5.8 km/h 14.8 km/h 89 % 0.25 mm
08:37 5.8 °C 4.2 °C 1023.9 hPa ENE 9.5 km/h 14.8 km/h 89 % 0.25 mm
08:42 5.9 °C 4.2 °C 1023.9 hPa North 7.7 km/h 18.5 km/h 89 % 0.51 mm
08:47 5.9 °C 4.4 °C 1023.9 hPa ENE 8 km/h 17.7 km/h 90 % 0.25 mm
08:52 5.9 °C 4.3 °C 1023.9 hPa NE 5.6 km/h 13 km/h 89 % 0.25 mm
08:57 5.9 °C 4.3 °C 1023.9 hPa North 8 km/h 19.3 km/h 89 % 0.25 mm
09:02 6 °C 4.3 °C 1023.9 hPa ENE 8.9 km/h 13 km/h 89 % 0.25 mm
09:07 6 °C 4.2 °C 1023.6 hPa ENE 13.4 km/h 18.5 km/h 88 % 0.25 mm
09:12 6.1 °C 4.2 °C 1023.9 hPa NNE 6.3 km/h 19.3 km/h 88 % 0.25 mm
09:17 6.1 °C 4.2 °C 1023.9 hPa ENE 6.4 km/h 16.7 km/h 88 % 0.25 mm
09:22 6.1 °C 4.2 °C 1023.9 hPa NE 6.6 km/h 13 km/h 88 % 0.25 mm
09:27 6.1 °C 4.3 °C 1023.9 hPa NE 8.9 km/h 14.8 km/h 88 % 0.25 mm
09:32 6.1 °C 4.3 °C 1023.9 hPa NE 12.1 km/h 16.7 km/h 88 % 0.51 mm
09:37 6.1 °C 4.3 °C 1023.9 hPa ENE 8.4 km/h 16.7 km/h 88 % 0.51 mm
09:42 6.2 °C 4.3 °C 1023.9 hPa ENE 9.3 km/h 13 km/h 88 % 0.25 mm
09:52 6.2 °C 4.2 °C 1024.3 hPa NE 6.9 km/h 11.1 km/h 87 % 0.25 mm
09:57 6.2 °C 4.2 °C 1023.9 hPa NNE 4.7 km/h 16.7 km/h 87 % 0.25 mm
10:02 6.2 °C 4.2 °C 1024.3 hPa East 10.3 km/h 13 km/h 87 % 0.25 mm
10:07 6.2 °C 4.2 °C 1024.3 hPa NNE 11.3 km/h 14.8 km/h 87 % 0.25 mm
10:12 6.3 °C 4.3 °C 1024.3 hPa ENE 6.4 km/h 16.7 km/h 87 % 0.25 mm
10:17 6.3 °C 4.3 °C 1024.3 hPa NE 11.9 km/h 18.5 km/h 87 % 0.25 mm
10:22 6.3 °C 4.2 °C 1024.3 hPa East 5.5 km/h 18.5 km/h 86 % 0.25 mm
10:27 6.3 °C 4.2 °C 1023.9 hPa NE 6.9 km/h 11.1 km/h 86 % 0.51 mm
10:32 6.4 °C 4.4 °C 1023.9 hPa ENE 10.3 km/h 16.1 km/h 87 % 0.25 mm
10:37 6.4 °C 4.1 °C 1023.9 hPa ENE 11.6 km/h 14.5 km/h 85 % 0.25 mm
10:38 6.4 °C 4.1 °C 1023.9 hPa East 13 km/h 20.4 km/h 85 % 0.25 mm
10:43 6.4 °C 4.3 °C 1023.9 hPa NE 5.5 km/h 11.1 km/h 86 % 0.25 mm
10:48 6.6 °C 4.4 °C 1023.9 hPa NE 6.8 km/h 18.5 km/h 86 % 0.25 mm
10:53 6.6 °C 4.3 °C 1023.9 hPa North 8.9 km/h 14.8 km/h 85 % 0.25 mm
10:58 6.7 °C 4.3 °C 1023.9 hPa ENE 6.9 km/h 12.9 km/h 85 % 0.25 mm
11:03 6.7 °C 4.2 °C 1023.6 hPa ENE 12.1 km/h 14.5 km/h 84 % 0.25 mm
11:08 6.8 °C 4.3 °C 1023.6 hPa ENE 11.9 km/h 18.5 km/h 84 % 0.25 mm
11:13 6.8 °C 4.3 °C 1023.6 hPa ENE 4.3 km/h 11.3 km/h 84 % 0.25 mm
11:18 6.9 °C 4.6 °C 1023.6 hPa North 4.2 km/h 5.6 km/h 85 % 0.25 mm
11:23 7.1 °C 4.6 °C 1023.6 hPa NE 9.2 km/h 14.8 km/h 84 % 0.25 mm
11:28 7.2 °C 4.4 °C 1023.6 hPa NE 7.9 km/h 13 km/h 83 % 0.25 mm
11:34 7.3 °C 4.6 °C 1023.6 hPa ENE 8.4 km/h 16.1 km/h 83 % 0.25 mm
11:39 7.3 °C 4.4 °C 1023.2 hPa North 9 km/h 12.9 km/h 82 % 0.25 mm
11:44 7.4 °C 4.7 °C 1023.6 hPa ENE 10.8 km/h 18.5 km/h 83 % 0.25 mm
11:49 7.6 °C 4.7 °C 1023.6 hPa NNE 6.6 km/h 14.8 km/h 82 % 0.25 mm
11:54 7.7 °C 4.4 °C 1023.2 hPa ENE 8.9 km/h 14.8 km/h 80 % 0.25 mm
12:09 7.9 °C 4.7 °C 1023.6 hPa ENE 9 km/h 14.8 km/h 80 % 0.25 mm
12:14 8.1 °C 4.8 °C 1023.2 hPa East 10.5 km/h 20.4 km/h 80 % 0.25 mm
12:19 8.1 °C 4.6 °C 1023.6 hPa East 11.1 km/h 14.8 km/h 79 % 0.51 mm
12:24 7.9 °C 4.2 °C 1023.2 hPa NE 10.1 km/h 14.8 km/h 77 % 0.51 mm
12:29 7.9 °C 4.3 °C 1023.2 hPa East 5.3 km/h 13 km/h 78 % 0.25 mm
12:34 8.1 °C 4.6 °C 1023.2 hPa ENE 8.5 km/h 13 km/h 79 % 0.25 mm
12:39 8.2 °C 4.7 °C 1023.2 hPa NE 5.1 km/h 11.1 km/h 79 % 0.25 mm
12:44 8.2 °C 4.6 °C 1022.9 hPa ENE 3.1 km/h 6.4 km/h 78 % 0.25 mm
12:45 8.2 °C 4.8 °C 1022.9 hPa NE 9.2 km/h 11.1 km/h 79 % 0.25 mm
12:51 8.3 °C 4.7 °C 1022.9 hPa ENE 8 km/h 11.3 km/h 78 % 0 mm
12:56 8.4 °C 4.8 °C 1022.9 hPa NE 8 km/h 12.9 km/h 78 % 0 mm
13:01 8.6 °C 5 °C 1022.9 hPa NNE 3.5 km/h 8 km/h 78 % 0.25 mm
13:06 8.7 °C 4.9 °C 1022.9 hPa ENE 10.6 km/h 16.7 km/h 77 % 0.25 mm
13:11 8.8 °C 4.8 °C 1022.9 hPa ENE 11.3 km/h 18.5 km/h 76 % 0.51 mm
13:16 8.8 °C 5 °C 1022.9 hPa NE 4.2 km/h 7.4 km/h 77 % 0.25 mm
13:21 8.8 °C 4.4 °C 1022.9 hPa NE 7.2 km/h 14.8 km/h 74 % 0.25 mm
13:26 8.9 °C 4.9 °C 1022.6 hPa ENE 4.7 km/h 7.4 km/h 76 % 0.25 mm
13:31 8.9 °C 4.7 °C 1022.6 hPa East 7.6 km/h 14.8 km/h 75 % 0.25 mm
13:36 8.9 °C 4.9 °C 1022.9 hPa NNE 6.6 km/h 9.3 km/h 76 % 0.25 mm
13:41 8.9 °C 4.7 °C 1022.9 hPa ENE 6.4 km/h 13 km/h 75 % 0.25 mm
13:46 8.8 °C 4.8 °C 1022.6 hPa ENE 9.3 km/h 14.8 km/h 76 % 0.25 mm
13:51 8.9 °C 4.9 °C 1022.6 hPa East 8.9 km/h 12.9 km/h 76 % 0.25 mm
13:56 8.8 °C 4.7 °C 1022.9 hPa ENE 5.3 km/h 13 km/h 75 % 0.51 mm
14:01 8.8 °C 4.8 °C 1022.9 hPa NE 0.5 km/h 5.6 km/h 76 % 0.51 mm
14:06 8.9 °C 5.1 °C 1022.9 hPa ENE 7.9 km/h 14.5 km/h 77 % 0.51 mm
14:11 8.9 °C 4.7 °C 1022.9 hPa ENE 4.8 km/h 5.6 km/h 75 % 0.25 mm
14:16 8.9 °C 5.1 °C 1022.9 hPa ENE 4.5 km/h 7.4 km/h 77 % 0.25 mm
14:21 8.9 °C 5.1 °C 1022.9 hPa East 6.8 km/h 8 km/h 77 % 0.25 mm
14:26 8.9 °C 5.1 °C 1022.9 hPa NNE 2.4 km/h 5.6 km/h 77 % 0.25 mm
14:31 8.9 °C 4.9 °C 1022.9 hPa NNE 3.1 km/h 9.3 km/h 76 % 0.25 mm
14:36 8.9 °C 5.1 °C 1022.9 hPa ENE 3.7 km/h 4.8 km/h 77 % 0.25 mm
14:41 8.9 °C 5.1 °C 1022.9 hPa ENE 1.8 km/h 7.4 km/h 77 % 0.25 mm
14:46 9 °C 5.2 °C 1022.9 hPa ENE 3.7 km/h 8 km/h 77 % 0.25 mm
14:51 9 °C 5.2 °C 1022.9 hPa ENE 4.3 km/h 5.6 km/h 77 % 0.51 mm
14:56 9 °C 5.2 °C 1022.9 hPa ENE 2.1 km/h 5.6 km/h 77 % 0.25 mm
15:01 9 °C 5.2 °C 1022.9 hPa ENE 2.6 km/h 5.6 km/h 77 % 0.25 mm
15:06 9 °C 5.2 °C 1023.2 hPa NNE 4 km/h 8 km/h 77 % 0.25 mm
15:11 9 °C 5.4 °C 1022.9 hPa ENE 2.6 km/h 5.6 km/h 78 % 0.25 mm
15:16 9 °C 5.2 °C 1023.2 hPa NE 5.6 km/h 11.1 km/h 77 % 0.25 mm
15:21 9 °C 5.2 °C 1023.2 hPa ENE 4.7 km/h 6.4 km/h 77 % 0.25 mm
15:27 9 °C 5.2 °C 1023.2 hPa North 4.5 km/h 5.6 km/h 77 % 0.25 mm
15:32 8.9 °C 5.1 °C 1023.2 hPa NE 2.7 km/h 5.6 km/h 77 % 0.25 mm
15:37 8.9 °C 5.1 °C 1023.2 hPa ENE 3.7 km/h 8 km/h 77 % 0.51 mm
15:42 8.9 °C 5.1 °C 1023.2 hPa ENE 4.2 km/h 7.4 km/h 77 % 0.51 mm
15:47 8.8 °C 5.2 °C 1023.2 hPa NE 1.9 km/h 5.6 km/h 78 % 0.25 mm
15:52 8.8 °C 5.2 °C 1023.2 hPa ENE 5 km/h 7.4 km/h 78 % 0.25 mm
15:57 8.8 °C 4.9 °C 1023.2 hPa ENE 1.4 km/h 5.6 km/h 77 % 0.25 mm
16:02 8.8 °C 4.9 °C 1023.2 hPa ENE 0.3 km/h 7.4 km/h 77 % 0.25 mm
16:07 8.7 °C 5.1 °C 1023.2 hPa ENE 2.9 km/h 5.6 km/h 78 % 0.25 mm
16:12 8.7 °C 5.1 °C 1023.2 hPa NNE 1 km/h 7.4 km/h 78 % 0.25 mm
16:17 8.7 °C 5.1 °C 1023.2 hPa ENE 1.3 km/h 5.6 km/h 78 % 0.25 mm
16:22 8.7 °C 4.8 °C 1023.2 hPa NE 3.5 km/h 5.6 km/h 77 % 0.25 mm
16:27 8.6 °C 4.8 °C 1023.2 hPa NNE 3.1 km/h 5.6 km/h 77 % 0.25 mm
16:32 8.6 °C 4.9 °C 1023.2 hPa NNE 0.6 km/h 3.7 km/h 78 % 0.51 mm
16:37 8.6 °C 4.8 °C 1023.2 hPa NNE 2.3 km/h 5.6 km/h 77 % 0.25 mm
16:42 8.5 °C 4.9 °C 1023.2 hPa NNE 1.9 km/h 3.7 km/h 78 % 0.25 mm
16:47 8.4 °C 4.7 °C 1023.2 hPa Calm     77 % 0.25 mm
16:52 8.4 °C 4.8 °C 1023.6 hPa ENE 2.1 km/h 3.2 km/h 78 % 0.25 mm
16:58 8.4 °C 4.8 °C 1023.6 hPa Calm   5.6 km/h 78 % 0.25 mm
17:03 8.4 °C 4.8 °C 1023.6 hPa NE 0.3 km/h 5.6 km/h 78 % 0.25 mm
17:08 8.4 °C 5 °C 1023.9 hPa Calm     79 % 0.25 mm
17:13 8.4 °C 5.1 °C 1023.9 hPa Calm     80 % 0.25 mm
17:18 8.4 °C 5.2 °C 1023.9 hPa Calm   1.9 km/h 80 % 0.25 mm
17:23 8.4 °C 5.1 °C 1023.6 hPa NNE 0.6 km/h 3.7 km/h 80 % 0.25 mm
17:28 8.4 °C 5.1 °C 1023.9 hPa Calm     80 % 0.51 mm
17:33 8.3 °C 5.1 °C 1023.9 hPa North 3.5 km/h 5.6 km/h 80 % 0.25 mm
17:38 8.3 °C 5.1 °C 1023.9 hPa Calm     80 % 0.25 mm
17:43 8.3 °C 5.1 °C 1023.9 hPa North 1.9 km/h 7.4 km/h 80 % 0.25 mm
17:48 8.3 °C 4.8 °C 1023.9 hPa NNW 8.9 km/h 11.1 km/h 79 % 0.25 mm
17:53 8.3 °C 4.8 °C 1023.9 hPa NNE 5.5 km/h 11.1 km/h 79 % 0.25 mm
17:58 8.3 °C 4.8 °C 1023.9 hPa North 4.3 km/h 5.6 km/h 79 % 0.25 mm
18:03 8.3 °C 4.8 °C 1023.9 hPa NNE 0.6 km/h 5.6 km/h 79 % 0.25 mm
18:08 8.3 °C 5.1 °C 1023.9 hPa North 1.1 km/h 5.6 km/h 80 % 0.25 mm
18:13 8.3 °C 5.1 °C 1023.9 hPa North 0.8 km/h 5.6 km/h 80 % 0.25 mm
18:19 8.3 °C 4.9 °C 1024.3 hPa North 1.1 km/h 4.8 km/h 79 % 0.25 mm
18:24 8.3 °C 4.9 °C 1024.3 hPa NNE 1.3 km/h 6.4 km/h 79 % 0.25 mm
18:29 8.3 °C 4.7 °C 1024.3 hPa North 3.5 km/h 5.6 km/h 78 % 0 mm
18:34 8.3 °C 4.7 °C 1024.3 hPa North 5 km/h 7.4 km/h 78 % 0.25 mm
18:39 8.3 °C 4.7 °C 1024.3 hPa NNE 2.4 km/h 9.3 km/h 78 % 0.25 mm
18:44 8.3 °C 4.7 °C 1024.3 hPa NNE 3.7 km/h 7.4 km/h 78 % 0.25 mm
18:49 8.4 °C 4.8 °C 1024.3 hPa North 7.2 km/h 11.1 km/h 78 % 0.25 mm
18:54 8.4 °C 4.8 °C 1024.3 hPa NNE 6.4 km/h 9.3 km/h 78 % 0.25 mm
18:59 8.4 °C 4.8 °C 1023.9 hPa North 6.8 km/h 11.1 km/h 78 % 0.25 mm
19:04 8.4 °C 5 °C 1024.3 hPa NE 10.8 km/h 14.8 km/h 79 % 0.25 mm
19:09 8.5 °C 5.1 °C 1024.3 hPa NNW 6.1 km/h 8 km/h 79 % 0.25 mm
19:14 8.5 °C 5.1 °C 1024.3 hPa North 4.8 km/h 9.7 km/h 79 % 0.25 mm
19:19 8.5 °C 5.1 °C 1024.3 hPa NNE 1.4 km/h 5.6 km/h 79 % 0.25 mm
19:24 8.5 °C 4.9 °C 1024.3 hPa NNE 6.3 km/h 16.7 km/h 78 % 0.25 mm
19:29 8.6 °C 4.8 °C 1024.3 hPa NNE 3.5 km/h 8 km/h 77 % 0.25 mm
19:34 8.6 °C 4.8 °C 1024.3 hPa NNE 6 km/h 13 km/h 77 % 0.25 mm
19:39 8.6 °C 4.9 °C 1024.3 hPa NNE 6.6 km/h 12.9 km/h 78 % 0.25 mm
19:44 8.6 °C 5.1 °C 1024.3 hPa NNE 6 km/h 9.3 km/h 79 % 0.25 mm
19:49 8.6 °C 5.1 °C 1024.3 hPa NNE 7.2 km/h 8 km/h 79 % 0.25 mm
19:54 8.6 °C 5.1 °C 1024.3 hPa NE 3.1 km/h 11.1 km/h 79 % 0.25 mm
19:59 8.6 °C 4.9 °C 1024.6 hPa ENE 5 km/h 11.3 km/h 78 % 0.25 mm
20:04 8.5 °C 4.7 °C 1024.6 hPa NNE 4.8 km/h 13 km/h 77 % 0.25 mm
20:09 8.5 °C 4.9 °C 1024.6 hPa NE 1.9 km/h 13 km/h 78 % 0.25 mm
20:14 8.5 °C 4.9 °C 1024.6 hPa North 5.1 km/h 8 km/h 78 % 0.25 mm
20:19 8.4 °C 4.8 °C 1024.6 hPa NNE 3.4 km/h 9.7 km/h 78 % 0.25 mm
20:24 8.4 °C 4.6 °C 1024.6 hPa North 2.4 km/h 7.4 km/h 77 % 0.25 mm
20:29 8.3 °C 4.6 °C 1024.3 hPa NNE 3.5 km/h 5.6 km/h 77 % 0.25 mm
20:34 8.3 °C 4.3 °C 1024.6 hPa NNE 5.3 km/h 5.6 km/h 76 % 0 mm
20:40 8.2 °C 4.4 °C 1024.6 hPa ENE 0.6 km/h 3.2 km/h 77 % 0 mm
20:43 8.2 °C 4.4 °C 1024.6 hPa Calm     77 % 0 mm
20:46 8.1 °C 4.3 °C 1024.6 hPa North 1.1 km/h 3.7 km/h 77 % 0.25 mm
20:49 8.1 °C 4.3 °C 1024.6 hPa North 4.3 km/h 13 km/h 77 % 0.25 mm
20:54 7.9 °C 4.2 °C 1024.3 hPa Calm   5.6 km/h 77 % 0.25 mm
20:59 7.9 °C 4.1 °C 1024.3 hPa Calm     77 % 0.25 mm
21:04 7.8 °C 4.1 °C 1024.3 hPa NNE 4.2 km/h 5.6 km/h 77 % 0.25 mm
21:09 7.7 °C 3.9 °C 1023.9 hPa Calm     77 % 0.25 mm
21:14 7.6 °C 4 °C 1024.3 hPa ENE 2.7 km/h 5.6 km/h 78 % 0.25 mm
21:19 7.6 °C 3.9 °C 1024.3 hPa ENE 3.1 km/h 8 km/h 78 % 0.25 mm
21:24 7.4 °C 4.1 °C 1023.9 hPa ENE 4.3 km/h 7.4 km/h 79 % 0.25 mm
21:29 7.4 °C 4.1 °C 1023.9 hPa ENE 1.3 km/h 3.7 km/h 79 % 0.25 mm
21:32 7.4 °C 4 °C 1023.9 hPa Calm   1.9 km/h 79 % 0.25 mm
21:37 7.3 °C 3.9 °C 1023.9 hPa Calm   1.9 km/h 79 % 0.25 mm
21:42 7.3 °C 4.1 °C 1023.9 hPa Calm   1.9 km/h 80 % 0.25 mm
21:47 7.2 °C 4.1 °C 1023.9 hPa Calm   1.9 km/h 81 % 0 mm
21:52 7.1 °C 4 °C 1023.9 hPa Calm   1.9 km/h 81 % 0 mm
21:57 6.9 °C 3.9 °C 1023.9 hPa NNE 0.3 km/h   81 % 0 mm
22:02 6.8 °C 3.9 °C 1023.9 hPa Calm     82 % 0.25 mm
22:07 6.7 °C 3.8 °C 1023.9 hPa NE 0.3 km/h 3.7 km/h 82 % 0.25 mm
22:12 6.5 °C 3.7 °C 1023.9 hPa NE 1.3 km/h 3.2 km/h 82 % 0.25 mm
22:17 6.3 °C 3.7 °C 1023.9 hPa Calm     83 % 0.25 mm
22:22 6.2 °C 3.6 °C 1023.6 hPa Calm     83 % 0.25 mm
22:23 6.2 °C 3.5 °C 1023.6 hPa Calm     83 % 0.25 mm
22:28 6.1 °C 3.6 °C 1015.8 hPa Calm     84 % 0.25 mm
22:29 6.1 °C 3.6 °C 1015.8 hPa Calm     84 % 0.25 mm
22:33 5.9 °C 3.4 °C 1023.6 hPa Calm   3.7 km/h 84 % 0.25 mm
22:38 5.8 °C 3.5 °C 1023.6 hPa Calm     85 % 0.25 mm
22:43 5.7 °C 3.3 °C 1023.6 hPa Calm     85 % 0.25 mm
22:46 5.6 °C 3.4 °C 1023.6 hPa Calm     86 % 0.25 mm
22:51 5.5 °C 3.3 °C 1023.2 hPa Calm     86 % 0.25 mm
22:56 5.4 °C 3.2 °C 1023.2 hPa Calm     86 % 0.25 mm
23:01 5.3 °C 3.3 °C 1023.6 hPa Calm   1.9 km/h 87 % 0 mm
23:07 5.2 °C 3.2 °C 1023.2 hPa Calm     87 % 0 mm
23:12 5.2 °C 3.2 °C 1023.2 hPa NE 0.2 km/h 1.9 km/h 87 % 0 mm
23:17 5.1 °C 3.1 °C 1023.2 hPa Calm   3.7 km/h 87 % 0 mm
23:22 5 °C 3.2 °C 1023.2 hPa Calm     88 % 0 mm
23:27 4.9 °C 3.1 °C 1023.2 hPa NE 2.1 km/h 3.7 km/h 88 % 0.25 mm
23:32 4.9 °C 3.1 °C 1023.2 hPa Calm     88 % 0.25 mm
23:37 4.8 °C 3.2 °C 1023.6 hPa Calm     89 % 0.25 mm
23:42 4.8 °C 3.1 °C 1023.6 hPa NE 3.5 km/h 4.8 km/h 89 % 0.25 mm
23:47 4.7 °C 3.1 °C 1023.2 hPa Calm     89 % 0.25 mm
23:52 4.7 °C 3.1 °C 1023.6 hPa NE 0.2 km/h 3.7 km/h 89 % 0.25 mm
23:57 4.7 °C 3 °C 1023.6 hPa NE 1.6 km/h 3.7 km/h 89 % 0.25 mm
Crab Meadow Weather
Compliments of Weather Underground - 3 mb

Script developed by  Jim McMurry - jmcmurry@mwt.net Adapted for the template by  Wim van der Kuil - Leuven-Template.eu

Weather Terms: Dew Point - A measure of atmospheric moisture. It is the temperature to which air must be cooled in order to reach saturation (assuming pressure and moisture content are constant).